Flint, MI

4:01 PM EST on February 10, 2016 (GMT -0500)
Bishop International

Weather History for KFNT - June, 2013

Change the Weather History Date:

Saturday, June 15, 2013

  Actual Average Record
Temperature  
Mean Temperature 68 °F 67 °F  
Max Temperature 79 °F 78 °F 93 °F (1954)
Min Temperature 57 °F 55 °F 41 °F (1999)
Degree Days  
Heating Degree Days 0 2  
Month to date heating degree days 34 48  
Since 1 June heating degree days 34 48  
Since 1 July heating degree days 6455 6935  
Cooling Degree Days 3 4  
Month to date cooling degree days 36 39  
Year to date cooling degree days 115 71  
Since 1 June cooling degree days 36 39  
Growing Degree Days 18 (Base 50)    
Moisture  
Dew Point 56 °F    
Average Humidity 63    
Maximum Humidity 78    
Minimum Humidity 48    
Precipitation  
Precipitation 0.01 in 0.11 in 2.20 in (1949)
Month to date precipitation 1.90 1.56  
Year to date precipitation 18.66 12.55  
Snow  
Snow 0.00 in 0.00 in 0.00 in ()
Month to date snowfall 0.0 0.0  
Since 1 June snowfall 0.0 0.0  
Since 1 July snowfall 43.8 47.4  
Snow Depth 0.00 in    
Sea Level Pressure  
Sea Level Pressure 30.01 in    
Wind  
Wind Speed 5 mph (SW)    
Max Wind Speed 12 mph    
Max Gust Speed 18 mph    
Visibility 10 miles    
Events      
T = Trace of Precipitation, MM = Missing Value Source: NWS Daily Summary

Daily Weather History Graph

Daily Weather History Graph

Search for Another Location

Airport or City:

Trip Planner

Search our weather history database for the weather conditions in past years. The results will help you decide how hot, cold, wet, or windy it might be!

Date:

Astronomy

Jun. 15, 2013 Rise Set
Actual Time 5:55 AM EDT 9:15 PM EDT
Civil Twilight 5:20 AM EDT 9:51 PM EDT
Nautical Twilight 4:34 AM EDT 10:37 PM EDT
Astronomical Twilight 3:37 AM EDT 11:33 PM EDT
Moon 12:38 PM EDT (6/15) 12:42 AM EDT (6/15)
Length of Visible Light 16h 31m
Length of Day
15h 20m
Waxing Crescent, 39% of the Moon is Illuminated
Jun 15
Waxing Crescent
Jun 16
First Quarter
Jun 23
Full
Jun 30
Last Quarter
Jul 8
New

Hourly Weather History & Observations

Time (EDT) Temp. Dew Point Humidity Pressure Visibility Wind Dir Wind Speed Gust Speed Precip Events Conditions
12:53 AM 59.0 °F 48.9 °F 69% 30.04 in 10.0 mi South 5.8 mph - N/A   Clear
1:53 AM 60.1 °F 50.0 °F 69% 30.03 in 10.0 mi South 4.6 mph - N/A   Clear
2:53 AM 59.0 °F 51.1 °F 75% 30.04 in 10.0 mi SSW 5.8 mph - N/A   Clear
3:53 AM 60.1 °F 53.1 °F 78% 30.05 in 10.0 mi SW 6.9 mph - N/A   Clear
4:53 AM 60.1 °F 54.0 °F 80% 30.04 in 10.0 mi SSW 5.8 mph - N/A   Clear
5:53 AM 60.1 °F 54.0 °F 80% 30.04 in 10.0 mi North - - N/A   Clear
6:01 AM 60.8 °F 53.6 °F 77% 30.05 in 10.0 mi SSW 5.8 mph - N/A   Clear
6:53 AM 60.1 °F 54.0 °F 80% 30.07 in 10.0 mi SW 3.5 mph - N/A   Clear
7:53 AM 62.1 °F 54.0 °F 75% 30.08 in 10.0 mi SW 4.6 mph - N/A   Mostly Cloudy
8:53 AM 68.0 °F 55.9 °F 65% 30.06 in 10.0 mi SW 3.5 mph - N/A   Clear
9:53 AM 71.1 °F 55.0 °F 57% 30.06 in 10.0 mi SW 6.9 mph - N/A   Clear
10:53 AM 73.0 °F 55.9 °F 55% 30.04 in 10.0 mi WSW 5.8 mph - N/A   Clear
11:53 AM 75.9 °F 57.0 °F 52% 30.01 in 10.0 mi SW 3.5 mph - N/A   Clear
12:53 PM 79.0 °F 57.9 °F 48% 30.01 in 10.0 mi WSW 9.2 mph - N/A   Partly Cloudy
1:53 PM 75.0 °F 57.9 °F 55% 30.01 in 10.0 mi WSW 8.1 mph - N/A   Mostly Cloudy
2:53 PM 75.0 °F 59.0 °F 57% 30.01 in 10.0 mi WSW 8.1 mph - 0.01 in   Mostly Cloudy
3:53 PM 75.0 °F 60.1 °F 60% 30.00 in 10.0 mi WSW 5.8 mph - N/A   Overcast
4:53 PM 75.0 °F 59.0 °F 57% 29.99 in 10.0 mi WSW 4.6 mph - N/A   Overcast
5:53 PM 75.9 °F 61.0 °F 60% 29.97 in 10.0 mi SSW 6.9 mph - N/A   Mostly Cloudy
6:53 PM 73.9 °F 61.0 °F 64% 29.95 in 10.0 mi SW 5.8 mph - N/A   Overcast
7:53 PM 72.0 °F 57.9 °F 61% 29.96 in 10.0 mi WSW 6.9 mph - N/A   Mostly Cloudy
8:53 PM 70.0 °F 57.9 °F 65% 29.95 in 10.0 mi SW 6.9 mph - N/A   Mostly Cloudy
9:53 PM 68.0 °F 59.0 °F 73% 29.92 in 10.0 mi South 6.9 mph - N/A   Partly Cloudy
10:53 PM 68.0 °F 60.1 °F 76% 29.93 in 10.0 mi SSW 6.9 mph - N/A   Partly Cloudy
11:53 PM 68.0 °F 59.0 °F 73% 29.91 in 10.0 mi SSW 8.1 mph - N/A   Clear